Showing default

BLACKJACK ACES-2, 56955

Orbit data source: Space-Track

BLACKJACK ACES-2, 56955 is a payload satellite owned by DARPA (US) in SSO that was launched on Mon, 12 Jun 2023 UTC via an FALCON 9 launch vehicle from the Air Force Western Test Range (AFWTR). Payload-class satellites include a variety of spacecraft equipped with specific instruments for various scientific and technological missions. These include communications satellites like Starlink; space stations such as the ISS; scientific satellites like the Hubble; Earth observation satellites from companies like Planet Labs, Umbra, and HawkEye 360; GPS; miniature CubeSats for education and research; and military/defense satellites.

Loading next visibility...
Identifier
56955, 2023-084Z
Orbit
SSO
Country
Flag of USUS
Related business
Manufacturer
BLCAN/LMSS
Mission
Operational Defense Communications
Bus & Motor
X-SAT, Unknown motor
Mass
~200 kg wet, ~200 kg dry
Launch date (UTC)
2023-06-12 (3 years ago)
Launch vehicle
FALCON 9
Launch site
Air Force Western Test Range (AFWTR)
Object type
Payload
Rocket body
Debris
Shape & HBR
Box, 3.6 m
Radar Cross Section
0.875 m², Large (>1 m²)

Expand to show TLE details & history
Last TLE update: 5 hours ago

TLE from 5 hours ago
0 BLACKJACK ACES-2
1 56955U 23084Z   26207.31447685  .00007255  00000-0  35143-3 0  9990
2 56955  97.6248 342.9054 0002168 125.6678 234.4758 15.18855616173119
Epoch: 2026-07-26T07:32Z
TLE epoch observation values (Epoch: 2026-07-26T07:32:50.799Z)
Latitude
-0.00004°
Longitude
-74.32044°
Altitude
513.248 km
Speed
7.607 km/s
True Right ascension
22h 51m 37s
True Declination
0° 00' 00"
Sunlit
Object was in full shadow at epoch
Visualization orbit readout
Latitude
Unknown
Longitude
Unknown
Altitude
Unknown
Speed
Unknown
Apparent Right ascension
Unknown
Apparent Declination
Unknown
Sunlit
N/A
Visualization observer readout
Local Sidereal Time
01:56:40
Azimuth
Unknown
Elevation
Unknown
Doppler factor
Unknown
Orbital elements
Apogee altitude
507.767 km
Perigee altitude
504.782 km
Semi-major axis
6,884.412 km
Eccentricity
0.00022
Inclination
97.6248°
RAAN
342.9054°
Arg. of periapsis
125.6678°
True anomaly
234.45558°
Mean anomaly
234.4758°
Eccentric anomaly
234.46569°
Mean motion
3.79964 °/min
Orbital period
94.75 mins
BSTAR
0.00035143
Loading maneuver chart data...
Computing Atmospheric mass density...
Loading historical data...
Loading historical data...
Loading historical data...
Loading historical data...
Loading historical data...
Loading historical data...
Loading historical data...

Documentation

Showing up to 5 results
|